Weather History for Morris, IL

Change the Weather History Date:

Saturday, April 6, 2013

  Actual Average (KLOT) Record (KLOT)
Temperature  
Mean Temperature 52 °F 47 °F  
Max Temperature 71 °F 57 °F 79 °F (2010)
Min Temperature 34 °F 36 °F 22 °F (2007)
Degree Days  
Heating Degree Days 13 18  
Month to date heating degree days 115  
Since 1 July heating degree days 5660  
Cooling Degree Days 0 0  
Month to date cooling degree days 0  
Year to date cooling degree days 0  
Growing Degree Days 2 (Base 50)    
Moisture  
Dew Point 32 °F    
Average Humidity 47    
Maximum Humidity 80    
Minimum Humidity 25    
Precipitation  
Precipitation 0.01 in 0.11 in 0.16 in (2001)
Month to date precipitation 0.63  
Year to date precipitation 7.11  
Snow  
Snow 0.00 in 0.00 in 0.10 in (2009)
Month to date snowfall 0.2  
Since 1 July snowfall 32.0  
Snow Depth -    
Sea Level Pressure  
Sea Level Pressure 29.85 in    
Wind  
Wind Speed 16 mph (SSE)    
Max Wind Speed 31 mph    
Max Gust Speed 41 mph    
Visibility 10 miles    
Events Rain , Thunderstorm    
T = Trace of Precipitation, MM = Missing Value Source: NWS Daily Summary

Daily Weather History Graph

Daily Weather History Graph

Search for Another Location

Airport:

Trip Planner

Search our weather history database for the weather conditions in past years. The results will help you decide how hot, cold, wet, or windy it might be!

Date:

Astronomy

Apr. 06, 2013 Rise Set
Actual Time 6:28 AM CDT 7:24 PM CDT
Civil Twilight 5:59 AM CDT 7:52 PM CDT
Nautical Twilight 5:26 AM CDT 8:26 PM CDT
Astronomical Twilight 4:51 AM CDT 9:01 PM CDT
Moon 4:14 AM CDT (4/6) 3:50 PM CDT (4/6)
Length of Visible Light 13h 52m
Length of Day
12h 56m
Waning Crescent, 15% of the Moon is Illuminated
Apr 6
Waning Crescent
Apr 10
New
Apr 18
First Quarter
Apr 25
Full
May 2
Last Quarter

Hourly Weather History & Observations

Time (CDT) Temp. Windchill Dew Point Humidity Pressure Visibility Wind Dir Wind Speed Gust Speed Precip Events Conditions
12:15 AM 36.7 °F 28.9 °F 22.5 °F 56% 30.10 in 10.0 mi East 11.5 mph - N/A   Clear
12:35 AM 35.1 °F 30.1 °F 22.8 °F 61% 30.12 in 10.0 mi East 5.8 mph - N/A   Clear
12:55 AM 34.9 °F 26.6 °F 23.5 °F 63% 30.10 in 10.0 mi East 11.5 mph - N/A   Clear
1:15 AM 34.9 °F 28.3 °F 24.6 °F 66% 30.12 in 10.0 mi East 8.1 mph - N/A   Clear
1:35 AM 35.2 °F 27.6 °F 26.1 °F 69% 30.11 in 10.0 mi East 10.4 mph - N/A   Clear
1:55 AM 35.6 °F 28.6 °F 26.6 °F 70% 30.10 in 10.0 mi East 9.2 mph - N/A   Clear
2:15 AM 35.2 °F 28.8 °F 26.4 °F 70% 30.09 in 10.0 mi ESE 8.1 mph - N/A   Scattered Clouds
2:35 AM 35.6 °F 28.0 °F 26.6 °F 70% 30.09 in 10.0 mi ESE 10.4 mph - N/A   Scattered Clouds
2:55 AM 35.6 °F 29.2 °F 27.3 °F 72% 30.08 in 10.0 mi East 8.1 mph - N/A   Clear
3:15 AM 36.1 °F 28.2 °F 25.5 °F 65% 30.07 in 10.0 mi East 11.5 mph - N/A   Scattered Clouds
3:35 AM 36.1 °F 28.7 °F 25.2 °F 64% 30.06 in 10.0 mi ESE 10.4 mph 18.4 mph N/A   Scattered Clouds
3:55 AM 36.5 °F 29.2 °F 25.2 °F 64% 30.05 in 10.0 mi ESE 10.4 mph - N/A   Clear
4:15 AM 36.7 °F 28.9 °F 25.7 °F 64% 30.06 in 10.0 mi ESE 11.5 mph 17.3 mph N/A   Clear
4:35 AM 36.5 °F 28.2 °F 26.2 °F 66% 30.05 in 10.0 mi ESE 12.7 mph - N/A   Clear
4:55 AM 36.7 °F 29.9 °F 26.8 °F 67% 30.06 in 10.0 mi SE 9.2 mph - N/A   Clear
5:15 AM 36.5 °F 29.7 °F 28.2 °F 72% 30.04 in 10.0 mi SE 9.2 mph - N/A   Clear
5:35 AM 36.5 °F 29.2 °F 28.2 °F 72% 30.04 in 10.0 mi SE 10.4 mph - N/A   Clear
5:55 AM 36.5 °F 27.4 °F 27.5 °F 70% 30.02 in 10.0 mi SE 15.0 mph - N/A   Clear
6:15 AM 36.7 °F 28.0 °F 26.8 °F 67% 30.01 in 10.0 mi SE 13.8 mph - N/A   Clear
6:35 AM 37.0 °F 29.8 °F 26.6 °F 66% 30.02 in 10.0 mi SE 10.4 mph - N/A   Clear
6:55 AM 37.4 °F 31.4 °F 27.0 °F 66% 30.02 in 10.0 mi SE 8.1 mph - N/A   Clear
7:15 AM 39.4 °F 32.3 °F 27.1 °F 62% 30.02 in 10.0 mi SE 11.5 mph 17.3 mph N/A   Clear
7:35 AM 41.0 °F 33.5 °F 27.3 °F 58% 30.01 in 10.0 mi SE 13.8 mph - N/A   Clear
7:55 AM 42.4 °F 35.3 °F 28.4 °F 58% 30.00 in 10.0 mi SE 13.8 mph - N/A   Clear
8:15 AM 44.6 °F 36.9 °F 29.3 °F 55% 29.99 in 10.0 mi SSE 18.4 mph 24.2 mph N/A   Clear
8:35 AM 45.0 °F 37.1 °F 29.1 °F 54% 29.98 in 10.0 mi SSE 19.6 mph 27.6 mph N/A   Clear
8:55 AM 46.4 °F 39.0 °F 29.5 °F 52% 29.97 in 10.0 mi SSE 19.6 mph 25.3 mph N/A   Clear
9:15 AM 49.1 °F - 30.2 °F 48% 29.96 in 10.0 mi SSE 19.6 mph 26.5 mph N/A   Clear
9:35 AM 50.0 °F - 30.2 °F 47% 29.94 in 10.0 mi SSE 19.6 mph 27.6 mph N/A   Clear
9:55 AM 50.9 °F - 30.7 °F 46% 29.94 in 10.0 mi SSE 16.1 mph 28.8 mph N/A   Clear
10:15 AM 53.2 °F - 31.5 °F 43% 29.92 in 10.0 mi SSE 19.6 mph 27.6 mph N/A   Clear
10:35 AM 56.7 °F - 32.0 °F 39% 29.91 in 10.0 mi SSE 17.3 mph 25.3 mph N/A   Clear
10:55 AM 58.1 °F - 31.8 °F 37% 29.89 in 10.0 mi SSE 24.2 mph 33.4 mph N/A   Clear
11:15 AM 58.1 °F - 32.0 °F 37% 29.89 in 10.0 mi South 23.0 mph 32.2 mph N/A   Clear
11:35 AM 60.8 °F - 32.5 °F 35% 29.88 in 10.0 mi South 19.6 mph 31.1 mph N/A   Clear
11:55 AM 60.8 °F - 32.7 °F 35% 29.86 in 10.0 mi South 23.0 mph 33.4 mph N/A   Clear
12:15 PM 61.3 °F - 33.1 °F 35% 29.84 in 10.0 mi South 24.2 mph 32.2 mph N/A   Clear
12:35 PM 65.1 °F - 34.3 °F 32% 29.81 in 10.0 mi South 27.6 mph 34.5 mph N/A   Clear
12:55 PM 66.4 °F - 33.8 °F 30% 29.80 in 10.0 mi South 31.1 mph 40.3 mph N/A   Clear
1:15 PM 66.4 °F - 34.2 °F 30% 29.78 in 10.0 mi South 28.8 mph 39.1 mph N/A   Clear
1:35 PM 67.6 °F - 34.7 °F 30% 29.76 in 10.0 mi South 29.9 mph 35.7 mph N/A   Clear
1:55 PM 70.3 °F - 35.4 °F 28% 29.75 in 10.0 mi South 29.9 mph 41.4 mph N/A   Clear
2:15 PM 70.3 °F - 34.5 °F 27% 29.73 in 10.0 mi South 24.2 mph 41.4 mph N/A   Clear
2:35 PM 69.8 °F - 33.8 °F 27% 29.72 in 10.0 mi South 31.1 mph 39.1 mph N/A   Clear
2:55 PM 69.3 °F - 34.0 °F 27% 29.71 in 10.0 mi South 27.6 mph 35.7 mph N/A   Scattered Clouds
3:15 PM 70.7 °F - 34.3 °F 26% 29.70 in 10.0 mi South 29.9 mph 35.7 mph N/A   Clear
3:35 PM 70.7 °F - 33.3 °F 25% 29.69 in 10.0 mi SSW 29.9 mph 39.1 mph N/A   Scattered Clouds
3:55 PM 69.8 °F - 32.9 °F 26% 29.70 in 10.0 mi SSW 19.6 mph 31.1 mph N/A   Scattered Clouds
4:15 PM 68.7 °F - 33.4 °F 27% 29.69 in 10.0 mi SSW 23.0 mph 33.4 mph N/A   Mostly Cloudy
4:35 PM 68.0 °F - 34.2 °F 29% 29.68 in 10.0 mi SSW 20.7 mph 27.6 mph N/A   Mostly Cloudy
4:55 PM 69.1 °F - 33.4 °F 27% 29.67 in 10.0 mi SSW 24.2 mph 32.2 mph N/A   Scattered Clouds
5:15 PM 67.1 °F - 36.0 °F 32% 29.65 in 10.0 mi South 20.7 mph 26.5 mph N/A Rain Light Rain
5:35 PM 68.0 °F - 35.6 °F 30% 29.68 in 10.0 mi SW 21.9 mph 26.5 mph N/A   Scattered Clouds
5:55 PM 67.6 °F - 34.9 °F 30% 29.66 in 10.0 mi SSW 27.6 mph 33.4 mph N/A   Scattered Clouds
6:15 PM 67.1 °F - 35.4 °F 31% 29.66 in 10.0 mi SSW 25.3 mph 36.8 mph N/A   Scattered Clouds
6:35 PM 66.7 °F - 35.2 °F 31% 29.67 in 10.0 mi SSW 24.2 mph 32.2 mph N/A   Clear
6:55 PM 66.2 °F - 35.4 °F 32% 29.67 in 10.0 mi SSW 24.2 mph 34.5 mph N/A   Clear
7:15 PM 65.1 °F - 36.7 °F 35% 29.67 in 10.0 mi SSW 20.7 mph 28.8 mph N/A Rain Light Rain
7:35 PM 65.3 °F - 36.0 °F 34% 29.66 in 10.0 mi SSW 17.3 mph 26.5 mph N/A   Mostly Cloudy
7:55 PM 65.3 °F - 36.1 °F 34% 29.66 in 10.0 mi SSW 23.0 mph 31.1 mph N/A   Overcast
8:15 PM 65.3 °F - 36.0 °F 34% 29.65 in 10.0 mi SSW 21.9 mph 35.7 mph N/A   Overcast
8:35 PM 65.1 °F - 35.8 °F 34% 29.65 in 10.0 mi SSW 20.7 mph 31.1 mph N/A   Overcast
8:55 PM 63.7 °F - 37.4 °F 38% 29.65 in 10.0 mi SSW 20.7 mph 26.5 mph N/A Rain Light Rain
9:15 PM 64.4 °F - 36.1 °F 35% 29.65 in 10.0 mi SSW 21.9 mph 32.2 mph N/A   Overcast
9:35 PM 63.9 °F - 36.7 °F 37% 29.64 in 10.0 mi SSW 24.2 mph 31.1 mph N/A Thunderstorm Mostly Cloudy
9:55 PM 63.5 °F - 38.1 °F 39% 29.62 in 10.0 mi SSW 24.2 mph 32.2 mph N/A   Mostly Cloudy
10:15 PM 62.8 °F - 37.8 °F 40% 29.62 in 10.0 mi SSW 25.3 mph 34.5 mph N/A   Scattered Clouds
10:35 PM 61.7 °F - 39.9 °F 45% 29.62 in 10.0 mi SSW 25.3 mph 31.1 mph N/A   Light Drizzle
10:55 PM 61.0 °F - 42.6 °F 51% 29.68 in 10.0 mi WSW 24.2 mph 38.0 mph N/A Rain , Thunderstorm Light Thunderstorms and Rain
11:15 PM 55.2 °F - 47.5 °F 75% 29.66 in 10.0 mi SW 11.5 mph - N/A Rain Rain
11:35 PM 54.7 °F - 48.6 °F 80% 29.65 in 10.0 mi SW 18.4 mph 23.0 mph 0.01 in   Scattered Clouds
11:55 PM 55.0 °F - 48.4 °F 78% 29.66 in 10.0 mi SSW 16.1 mph - 0.01 in   Mostly Cloudy